Regional Weather Roundup
Issued by NWS Kansas City/Pleasant Hill, MO

Home | Current Version | Previous Version | Graphics & Text | Print | Product List | Glossary Off
Versions: 1 2 3 4 5 6 7 8 9 10 11 12 13 14 15 16 17 18 19 20 21 22 23 24 25 26 27

000
ASUS43 KEAX 241810
RWREAX

WEATHER ROUNDUP FOR EASTERN KANSAS AND NORTHWEST MISSOURI
NATIONAL WEATHER SERVICE KANSAS CITY/PLEASANT HILL MO
100 PM CDT SAT JUN 24 2017

KSZ040-057-103>105-MOZ028-029-037-043-241900-
...KANSAS CITY METROPOLITAN AREA...

CITY           SKY/WX    TMP DP  RH WIND       PRES   REMARKS
K.C. INTL      MOSUNNY   75  46  35 VRB3      30.24F
6HR MIN TEMP:  59; 6HR MAX TEMP:  75;

K.C. DOWNTOWN  SUNNY     77  43  29 CALM      30.22F
6HR MIN TEMP:  63; 6HR MAX TEMP:  77;

LEES SUMMIT    SUNNY     75  41  29 NW13      30.24S
6HR MIN TEMP:  62; 6HR MAX TEMP:  76;

OLATHE - IXD   SUNNY     75  42  30 VRB7      30.25F
6HR MIN TEMP:  60; 6HR MAX TEMP:  76;

OLATHE - OJC   SUNNY     76  41  28 N12       30.24F
6HR MIN TEMP:  61; 6HR MAX TEMP:  76;

LAWRENCE       SUNNY     76  43  30 VRB5      30.24F

$$

MOZ001>008-011>017-020>025-030>033-038>040-044>046-053-054-241900-
...NORTHERN AND CENTRAL MISSOURI...

CITY           SKY/WX    TMP DP  RH WIND       PRES   REMARKS
ST. JOSEPH     SUNNY     76  42  29 MISG      30.23S
6HR MIN TEMP:  55; 6HR MAX TEMP:  76;

MOSBY            N/A     73  37  27 W12       30.22F
WARRENSBURG    SUNNY     73  41  31 NW10G18   30.22S
WHITEMAN AFB   SUNNY     75  42  30 N10       30.21S
6HR MIN TEMP:  61; 6HR MAX TEMP:  75;

CLINTON        SUNNY     75  45  33 N9G20     30.23R
SEDALIA        SUNNY     76  47  35 NW12      30.22S
6HR MIN TEMP:  61; 6HR MAX TEMP:  76;

WARSAW         NOT AVBL
CHILLICOTHE      N/A     74  41  30 VRB5G17   30.22S
6HR MIN TEMP:  62; 6HR MAX TEMP:  75;

KIRKSVILLE     SUNNY     74  43  32 NW12G22   30.19F
6HR MIN TEMP:  58; 6HR MAX TEMP:  74;


$$

MOZ041-047>049-056>058-063>065-088>090-097-241900-
...EASTERN AND SOUTHERN MISSOURI...

CITY           SKY/WX    TMP DP  RH WIND       PRES   REMARKS
ST. LOUIS INTL MOSUNNY   79  47  32 NW12G22   30.14S
6HR MIN TEMP:  68; 6HR MAX TEMP:  79;

SPIRIT OF STL  MOSUNNY   77  50  38 NW12G20   30.13F
COLUMBIA       SUNNY     75  45  34 NW16      30.18S
JEFFERSON CITY SUNNY     76  45  33 W14       30.18R
ROLLA          SUNNY     75  51  43 W13G20    30.17F
OSAGE BEACH    SUNNY     75  47  36 W10G17    30.20S
SPRINGFIELD    CLOUDY    76  52  43 N12       30.21S
BRANSON        PTSUNNY   75  52  43 N5        30.23R
JOPLIN         SUNNY     79  53  40 N12       30.23S
WEST PLAINS    MOSUNNY   76  53  44 VRB7G17   30.20R

$$

IAZ060-094-KSZ022-034>040-054-083-096-NEZ052-066-093-241900-
...KANSAS...SOUTHEAST NEBRASKA AND IOWA...

CITY           SKY/WX    TMP DP  RH WIND       PRES   REMARKS
TOPEKA         SUNNY     77  46  33 N5        30.24F
6HR MIN TEMP:  58; 6HR MAX TEMP:  78;

MANHATTAN      SUNNY     79  41  25 W6        30.25S
EMPORIA        SUNNY     76  44  32 NE5       30.26S
CHANUTE        SUNNY     80  45  28 N9        30.24S
WICHITA        PTSUNNY   77  52  41 E6        30.25F
OMAHA          MOSUNNY   78  37  22 W21G26    30.17S
LINCOLN        SUNNY     78  37  22 W17G23    30.22S
FALLS CITY     SUNNY     74  41  30 VRB6      30.22F
LAMONI         SUNNY     74  44  34 NW10      30.19F
DES MOINES     MOSUNNY   74  38  27 W15G23    30.14F

$$





USA.gov is the U.S. government's official web portal to all federal, state and local government web resources and services.